(30) Urania
ephemeris date magn radius delta ra dec elong phase
Opposition1 Aug 202510.02.302 AU1.287 AU20h49m-17°37'179.2°0.4°
Today17 Sep 202511.22.237 AU1.468 AU20h18m-18°44'128.6°20.6°
(30) Urania - 2025-09-17
astro.vanbuitenen.nl


 
-1 year
-1 month
-1 day
Now
+1 day
+1 month
+1 year

The interactive orbit chart above shows the body's path through the solar system and its position at the given date. Green and blue lines are shown perpendicular to the ecliptic plane: Green if the path is above the ecliptic plane, blue if it is below. (Left-click and drag to rotate the view; Right-click and drag to move the view; Use scroll wheel to zoom in our out.)

The orbital elements of Urania are:

            e (Eccentricity)                : 0.1268059
            a (Semimajor axis)              : 2.3659895
            i (Inclination)                 : 2.09359
            Ω (Longitude of ascending node) : 307.39687
            ω (Argument of perihelion)      : 87.13746
            M (Mean anomaly)                : 265.41006
            Epoch                           : 2025 May 05

            L (Longitude of perihelion)     : 34.53242
            B (Latitude of perihelion)      : 2.09098
            P (Orbital period in years)     : 3.64            
        

The light curve chart below shows the estimated development of the minor planet's magnitude.


The all-sky chart below shows the path of the minor planet over the same period as the light curve. The current position is marked yellow.





The following chart shows the path of the minor planet in the next few days. The field of view is optimized for (~10x50) binoculars and finderscopes. A more printer-friendly version of the same chart can be found below.




Ephemerides:
Date       Time       RA (2000)    DEC (2000)    delta   radius  elong  phase   PA    magn
2025-09-17 00:00 UT   20 18 41.6   -18 44 01     1.468    2.237  128.6   20.6    78   11.2 
2025-09-17 23:14 UT   20 18 42.2   -18 43 20     1.476    2.236  127.6   20.8    78   11.2 
2025-09-18 00:00 UT   20 18 42.3   -18 43 19     1.476    2.236  127.6   20.9    78   11.2 
2025-09-19 00:00 UT   20 18 45.0   -18 42 31     1.484    2.235  126.7   21.1    78   11.2 
2025-09-20 00:00 UT   20 18 49.7   -18 41 38     1.493    2.233  125.7   21.4    78   11.2 
2025-09-21 00:00 UT   20 18 56.4   -18 40 39     1.501    2.232  124.7   21.7    78   11.2 
2025-09-22 00:00 UT   20 19 05.1   -18 39 34     1.510    2.231  123.8   22.0    78   11.3 
2025-09-23 00:00 UT   20 19 15.8   -18 38 23     1.519    2.229  122.9   22.2    77   11.3 
2025-09-24 00:00 UT   20 19 28.4   -18 37 06     1.528    2.228  121.9   22.5    77   11.3 
2025-09-25 00:00 UT   20 19 43.0   -18 35 44     1.537    2.227  121.0   22.7    77   11.3 
2025-09-26 00:00 UT   20 19 59.5   -18 34 15     1.546    2.225  120.1   22.9    77   11.3 
2025-09-27 00:00 UT   20 20 18.0   -18 32 41     1.555    2.224  119.2   23.2    77   11.4 
2025-09-28 00:00 UT   20 20 38.3   -18 31 01     1.565    2.223  118.3   23.4    77   11.4 
2025-09-29 00:00 UT   20 21 00.5   -18 29 15     1.574    2.221  117.4   23.6    77   11.4 
2025-09-30 00:00 UT   20 21 24.6   -18 27 24     1.583    2.220  116.5   23.8    77   11.4 
2025-10-01 00:00 UT   20 21 50.5   -18 25 26     1.593    2.219  115.7   24.0    77   11.4 
2025-10-02 00:00 UT   20 22 18.2   -18 23 23     1.603    2.217  114.8   24.2    77   11.5 
2025-10-03 00:00 UT   20 22 47.7   -18 21 14     1.612    2.216  113.9   24.4    77   11.5 
2025-10-04 00:00 UT   20 23 19.0   -18 18 59     1.622    2.215  113.1   24.6    77   11.5 
2025-10-05 00:00 UT   20 23 52.0   -18 16 39     1.632    2.213  112.2   24.7    77   11.5 
2025-10-06 00:00 UT   20 24 26.8   -18 14 12     1.642    2.212  111.4   24.9    77   11.5 
2025-10-07 00:00 UT   20 25 03.2   -18 11 41     1.652    2.211  110.6   25.0    77   11.5 
2025-10-08 00:00 UT   20 25 41.3   -18 09 03     1.662    2.209  109.7   25.2    77   11.6 
2025-10-09 00:00 UT   20 26 21.0   -18 06 20     1.672    2.208  108.9   25.3    77   11.6 
2025-10-10 00:00 UT   20 27 02.3   -18 03 31     1.682    2.207  108.1   25.5    77   11.6 
2025-10-11 00:00 UT   20 27 45.3   -18 00 36     1.692    2.206  107.3   25.6    77   11.6 
2025-10-12 00:00 UT   20 28 29.8   -17 57 35     1.703    2.204  106.5   25.7    76   11.6 
2025-10-13 00:00 UT   20 29 15.8   -17 54 29     1.713    2.203  105.7   25.9    76   11.6 
2025-10-14 00:00 UT   20 30 03.4   -17 51 17     1.723    2.202  104.9   26.0    76   11.6 
2025-10-15 00:00 UT   20 30 52.5   -17 47 60     1.734    2.200  104.1   26.1    76   11.7 
2025-10-16 00:00 UT   20 31 43.1   -17 44 36     1.744    2.199  103.3   26.2    76   11.7 
2025-10-17 00:00 UT   20 32 35.1   -17 41 07     1.754    2.198  102.5   26.3    76   11.7 


    Terminology:
            
    delta:  distance between minor planet and earth in AU
    radius: distance between minor planet and sun in AU
    magn:   magnitude (brightness) estimate    
    ra:     right ascension in hours (24h = 360deg)
    dec:    declination in degrees
    elong:  elongation in degrees (angle sun-earth-minor planet)    
    phase:  phase angle in degrees (angle sun-minor planet-earth)        
    AU:     Astronomical Unit (mean distance between earth and sun: 149597870.7 km
    

Orbital elements provided by the MPC (Minor Planet Center).
Calculations by a modified version of AAPlus, a C# implementation of the AA+ project by PJ Naughter from the algorithms presented in the book "Astronomical Algorithms" by Jean Meeus.
NGC2000 dso catalog and star labels from VizieR as provided by the Strasbourg astronomical Data Center.
Tycho2 catalog from the ESO archive.